GW6392 Weather Reports


Display with metric or nautical units.
time (UTC)temp
F
wind
direction
speed
MPH
gust
MPH
rain 1hr
in
rain 24hr
in
rain mn
in
humidity
%
barometer
mb
20260507203047 67 338 15.0 21.0 0.00 0.00 0.00 32 1011.4
20260507202511 68 338 16.0 23.0 0.00 0.00 0.00 31 1011.5
20260507202013 67 321 18.0 24.0 0.00 0.00 0.00 31 1011.3
20260507201541 67 14 16.0 24.0 0.00 0.00 0.00 30 1011.3
20260507201015 67 344 16.0 26.0 0.00 0.00 0.00 30 1011.3
20260507200512 68 329 16.0 26.0 0.00 0.00 0.00 30 1011.0
20260507200048 67 343 13.0 20.0 0.00 0.00 0.00 30 1011.1
20260507195514 67 346 15.0 21.0 0.00 0.00 0.00 30 1011.2
20260507195015 68 330 15.0 24.0 0.00 0.00 0.00 30 1011.3
20260507194542 68 331 16.0 21.0 0.00 0.00 0.00 30 1011.3
20260507194011 68 319 16.0 20.0 0.00 0.00 0.00 30 1011.4
20260507193515 68 317 15.0 20.0 0.00 0.00 0.00 29 1011.3
20260507193055 69 331 12.0 23.0 0.00 0.00 0.00 28 1011.3
20260507192511 69 323 15.0 23.0 0.00 0.00 0.00 29 1011.2
20260507192018 70 312 15.0 22.0 0.00 0.00 0.00 31 1011.2
20260507191543 69 334 14.0 28.0 0.00 0.00 0.00 30 1011.0
20260507191014 68 334 17.0 28.0 0.00 0.00 0.00 31 1011.2
20260507190517 69 321 12.0 25.0 0.00 0.00 0.00 32 1011.1
20260507190048 69 27 16.0 25.0 0.00 0.00 0.00 29 1011.4
20260507185519 68 345 17.0 24.0 0.00 0.00 0.00 31 1011.5
20260507185016 68 360 14.0 21.0 0.00 0.00 0.00 33 1011.4
20260507184523 67 325 17.0 21.0 0.00 0.00 0.00 33 1011.4
20260507184016 68 336 13.0 22.0 0.00 0.00 0.00 35 1011.3
20260507183514 67 322 14.0 25.0 0.00 0.00 0.00 34 1011.4
20260507183051 68 342 13.0 25.0 0.00 0.00 0.00 33 1011.5
20260507182512 68 336 12.0 21.0 0.00 0.00 0.00 36 1011.6
20260507182017 67 9 15.0 21.0 0.00 0.00 0.00 34 1011.6
20260507181550 68 319 10.0 19.0 0.00 0.00 0.00 36 1011.8
20260507181016 67 310 14.0 23.0 0.00 0.00 0.00 35 1011.9
20260507180517 67 329 14.0 21.0 0.00 0.00 0.00 34 1011.8
20260507180052 68 336 13.0 22.0 0.00 0.00 0.00 35 1011.9
20260507175516 67 321 16.0 22.0 0.00 0.00 0.00 36 1011.9
20260507175012 67 327 16.0 22.0 0.00 0.00 0.00 37 1012.0
20260507174604 66 14 16.0 22.0 0.00 0.00 0.00 38 1012.2
20260507174015 66 352 13.0 21.0 0.00 0.00 0.00 39 1012.1
20260507173515 66 16 13.0 22.0 0.00 0.00 0.00 38 1012.2
20260507173100 66 344 15.0 25.0 0.00 0.00 0.00 38 1012.2
20260507172517 65 342 16.0 25.0 0.00 0.00 0.00 40 1012.0
20260507172014 65 360 15.0 22.0 0.00 0.00 0.00 38 1012.3
20260507171529 66 338 14.0 22.0 0.00 0.00 0.00 38 1012.4
20260507171018 65 348 15.0 22.0 0.00 0.00 0.00 39 1012.3
20260507170517 65 349 14.0 28.0 0.00 0.00 0.00 39 1012.4
20260507170055 65 352 14.0 28.0 0.00 0.00 0.00 39 1012.4
20260507165514 66 352 13.0 21.0 0.00 0.00 0.00 39 1012.4
20260507165015 65 340 12.0 21.0 0.00 0.00 0.00 40 1012.3
20260507164602 65 317 13.0 19.0 0.00 0.00 0.00 40 1012.3
20260507164010 65 352 11.0 18.0 0.00 0.00 0.00 39 1012.4
20260507163510 64 344 11.0 20.0 0.00 0.00 0.00 40 1012.4
20260507163047 64 333 12.0 20.0 0.00 0.00 0.00 40 1012.3
20260507162517 64 323 13.0 20.0 0.00 0.00 0.00 39 1012.4
20260507162019 63 335 6.0 16.0 0.00 0.00 0.00 40 1012.2
20260507161546 63 352 9.0 13.0 0.00 0.00 0.00 41 1012.2
20260507161010 62 262 6.0 10.0 0.00 0.00 0.00 39 1012.3
20260507160516 62 31 1.0 6.0 0.00 0.00 0.00 39 1012.4
20260507160052 61 279 2.0 5.0 0.00 0.00 0.00 40 1012.4
20260507155517 60 238 1.0 4.0 0.00 0.00 0.00 39 1012.4
20260507155015 60 292 2.0 4.0 0.00 0.00 0.00 41 1012.7
20260507154552 59 352 2.0 4.0 0.00 0.00 0.00 39 1012.8
20260507154016 59 225 1.0 4.0 0.00 0.00 0.00 39 1012.6
20260507153517 58 241 1.0 4.0 0.00 0.00 0.00 39 1012.7
20260507153057 58 328 1.0 3.0 0.00 0.00 0.00 40 1012.7
20260507152514 57 328 0.0 5.0 0.00 0.00 0.00 39 1012.7
20260507152017 56 328 1.0 5.0 0.00 0.00 0.00 37 1012.8
20260507151539 56 348 1.0 5.0 0.00 0.00 0.00 37 1012.6
20260507151018 55 304 1.0 7.0 0.00 0.00 0.00 35 1012.7
20260507150515 55 315 3.0 5.0 0.00 0.00 0.00 37 1012.7
20260507150028 54 280 1.0 5.0 0.00 0.00 0.00 36 1012.3
20260507145517 53 290 1.0 5.0 0.00 0.00 0.00 35 1012.4
20260507145018 53 267 1.0 3.0 0.00 0.00 0.00 38 1012.6
20260507144556 52 302 0.0 2.0 0.00 0.00 0.00 37 1012.5
20260507144017 51 302 0.0 5.0 0.00 0.00 0.00 38 1012.4
20260507143525 50 302 0.0 7.0 0.00 0.00 0.00 38 1012.4
20260507143103 49 283 3.0 8.0 0.00 0.00 0.00 40 1012.3
20260507142519 49 263 4.0 8.0 0.00 0.00 0.00 42 1012.2
20260507142014 48 246 5.0 7.0 0.00 0.00 0.00 43 1012.3
20260507141557 47 276 4.0 7.0 0.00 0.00 0.00 46 1012.3
20260507141015 46 263 5.0 7.0 0.00 0.00 0.00 45 1012.3
20260507140517 46 280 4.0 7.0 0.00 0.00 0.00 48 1012.6
20260507140049 45 264 2.0 7.0 0.00 0.00 0.00 51 1012.7
20260507135515 45 304 3.0 7.0 0.00 0.00 0.00 50 1012.7
20260507135015 45 323 3.0 5.0 0.00 0.00 0.00 52 1012.7
20260507134558 44 256 2.0 5.0 0.00 0.00 0.00 54 1012.4
20260507134017 44 246 2.0 4.0 0.00 0.00 0.00 53 1012.5
20260507133518 44 267 3.0 6.0 0.00 0.00 0.00 53 1012.1
20260507133059 44 271 3.0 5.0 0.00 0.00 0.00 55 1012.3
20260507132517 43 352 1.0 2.0 0.00 0.00 0.00 56 1012.0
20260507132019 43 352 0.0 3.0 0.00 0.00 0.00 55 1012.3
20260507131607 42 352 2.0 3.0 0.00 0.00 0.00 55 1012.4
20260507131016 42 352 2.0 4.0 0.00 0.00 0.00 55 1012.5
20260507130516 42 352 3.0 4.0 0.00 0.00 0.00 55 1012.4
20260507130054 41 352 3.0 5.0 0.00 0.00 0.00 55 1012.3
20260507125520 41 352 2.0 5.0 0.00 0.00 0.00 54 1012.2
20260507125017 41 352 4.0 5.0 0.00 0.00 0.00 55 1012.2
20260507124556 40 352 3.0 4.0 0.00 0.00 0.00 55 1012.2
20260507124016 41 352 3.0 4.0 0.00 0.00 0.00 54 1012.1
20260507123514 41 352 1.0 3.0 0.00 0.00 0.00 52 1012.0
20260507123109 41 352 2.0 3.0 0.00 0.00 0.00 53 1012.0
20260507122516 41 352 2.0 3.0 0.00 0.00 0.00 53 1011.8
20260507122020 41 352 1.0 2.0 0.00 0.00 0.00 53 1012.0
20260507121624 42 352 1.0 3.0 0.00 0.00 0.00 51 1011.6
20260507121010 42 352 2.0 5.0 0.00 0.00 0.00 50 1011.6
20260507120519 42 352 2.0 5.0 0.00 0.00 0.00 50 1011.9
20260507120104 43 352 3.0 5.0 0.00 0.00 0.00 49 1011.9
20260507115522 43 352 1.0 3.0 0.00 0.00 0.00 47 1011.3
20260507115019 43 352 1.0 4.0 0.00 0.00 0.00 47 1011.4
20260507114605 42 352 2.0 5.0 0.00 0.00 0.00 49 1011.5
20260507114015 42 352 3.0 5.0 0.00 0.00 0.00 50 1011.7
20260507113514 42 316 2.0 6.0 0.00 0.00 0.00 51 1011.2
20260507113109 42 298 3.0 6.0 0.00 0.00 0.00 51 1011.3
20260507112508 42 296 4.0 5.0 0.00 0.00 0.00 49 1011.5
20260507112021 42 352 3.0 5.0 0.00 0.00 0.00 49 1011.4
20260507111610 42 5 3.0 6.0 0.00 0.00 0.00 48 1011.2
20260507111010 42 352 3.0 6.0 0.00 0.00 0.00 48 1011.1
20260507110518 42 9 3.0 5.0 0.00 0.00 0.00 48 1011.2
20260507110045 42 15 3.0 8.0 0.00 0.00 0.00 48 1011.0
20260507105514 41 25 4.0 8.0 0.00 0.00 0.00 48 1010.9
20260507105015 41 26 4.0 8.0 0.00 0.00 0.00 49 1011.1
20260507104608 41 26 3.0 5.0 0.00 0.00 0.00 52 1010.9
20260507104010 41 26 3.0 5.0 0.00 0.00 0.00 52 1011.0
20260507103517 41 26 3.0 6.0 0.00 0.00 0.00 51 1010.8
20260507103058 41 351 4.0 9.0 0.00 0.00 0.00 52 1010.8
20260507102519 40 340 4.0 9.0 0.00 0.00 0.00 53 1010.9
20260507102014 41 25 6.0 11.0 0.00 0.00 0.00 52 1010.9
20260507101614 41 5 7.0 9.0 0.00 0.00 0.00 50 1010.7
20260507101021 41 352 5.0 8.0 0.00 0.00 0.00 53 1010.6
20260507100519 40 321 4.0 8.0 0.00 0.00 0.00 53 1010.3
20260507100106 40 285 4.0 8.0 0.00 0.00 0.00 54 1010.3
20260507095519 39 301 5.0 10.0 0.00 0.00 0.00 56 1010.2
20260507095016 39 271 7.0 10.0 0.00 0.00 0.00 59 1010.2
20260507094623 38 261 5.0 8.0 0.00 0.00 0.00 62 1010.1
20260507094018 37 254 3.0 6.0 0.00 0.00 0.00 63 1010.1
20260507093518 37 274 2.0 4.0 0.00 0.00 0.00 66 1009.9
20260507093111 36 274 2.0 4.0 0.00 0.00 0.00 65 1010.0
20260507092517 36 274 3.0 4.0 0.00 0.00 0.00 65 1010.1
20260507092020 35 274 2.0 6.0 0.00 0.00 0.00 68 1010.2
20260507091642 35 269 3.0 6.0 0.00 0.00 0.00 67 1010.1
20260507091018 36 247 1.0 5.0 0.00 0.00 0.00 67 1010.0
20260507090517 36 246 3.0 5.0 0.00 0.00 0.00 63 1009.9
20260507090112 37 342 1.0 4.0 0.00 0.00 0.00 60 1009.9
20260507085517 37 342 2.0 4.0 0.00 0.00 0.00 63 1010.2
20260507085017 38 342 1.0 4.0 0.00 0.00 0.00 60 1010.2
20260507084609 38 236 3.0 5.0 0.00 0.00 0.00 58 1009.9
20260507084016 39 236 3.0 5.0 0.00 0.00 0.00 56 1009.9
20260507083518 40 40 1.0 5.0 0.00 0.00 0.00 51 1010.1
20260507083108 41 40 1.0 5.0 0.00 0.00 0.00 50 1009.9
20260507082509 40 28 3.0 4.0 0.00 0.00 0.00 51 1010.0
20260507082018 40 28 1.0 3.0 0.00 0.00 0.00 56 1010.1
20260507081540 40 28 1.0 3.0 0.00 0.00 0.00 59 1010.2
20260507081019 41 28 2.0 3.0 0.00 0.00 0.00 55 1010.1
20260507080514 43 28 0.0 2.0 0.00 0.00 0.00 49 1010.2
20260507080057 43 28 0.0 4.0 0.00 0.00 0.00 47 1010.2
20260507075518 43 28 1.0 6.0 0.00 0.00 0.00 48 1010.5
20260507075020 44 28 3.0 7.0 0.00 0.00 0.00 47 1010.5
20260507074610 44 40 4.0 10.0 0.00 0.00 0.00 46 1010.3
20260507074019 44 32 4.0 11.0 0.00 0.00 0.00 47 1010.4
20260507073517 44 51 6.0 12.0 0.00 0.00 0.00 48 1010.3
20260507073029 44 43 7.0 13.0 0.00 0.00 0.00 52 1010.8
20260507072519 43 14 8.0 13.0 0.00 0.00 0.00 55 1010.3
20260507072012 44 34 1.0 3.0 0.00 0.00 0.00 55 1009.9
20260507071618 45 105 0.0 0.0 0.00 0.00 0.00 54 1009.6
20260507071020 46 105 0.0 2.0 0.00 0.00 0.00 54 1009.4
20260507070518 46 105 0.0 3.0 0.00 0.00 0.00 50 1009.6
20260507070110 46 105 1.0 4.0 0.00 0.00 0.00 51 1009.7
20260507065519 47 105 3.0 4.0 0.00 0.00 0.00 50 1009.4
20260507065016 47 92 3.0 7.0 0.00 0.00 0.00 49 1009.8
20260507064611 48 97 3.0 7.0 0.00 0.00 0.00 46 1009.5
20260507064016 48 81 3.0 8.0 0.00 0.00 0.00 48 1009.6
20260507063515 49 91 4.0 8.0 0.00 0.00 0.00 47 1009.6
20260507063058 49 70 5.0 10.0 0.00 0.00 0.00 49 1009.7
20260507062515 50 103 6.0 10.0 0.00 0.00 0.00 48 1009.5
20260507062201 50 87 6.0 13.0 0.00 0.00 0.00 50 1009.6
20260507061537 50 71 8.0 13.0 0.00 0.00 0.00 50 1009.7
20260507061012 50 55 8.0 12.0 0.00 0.00 0.00 53 1009.6
20260507060511 50 44 3.0 7.0 0.00 0.00 0.00 55 1009.8
20260507060027 50 352 1.0 5.0 0.00 0.00 0.00 50 1009.6
20260507055513 51 352 3.0 5.0 0.00 0.00 0.00 50 1009.7
20260507055011 51 50 3.0 5.0 0.00 0.00 0.00 44 1009.6
20260507054538 52 63 3.0 8.0 0.00 0.00 0.00 40 1009.8
20260507054013 52 65 4.0 10.0 0.00 0.00 0.00 38 1009.7
20260507053512 52 64 7.0 12.0 0.00 0.00 0.00 39 1009.8
20260507053048 52 60 8.0 12.0 0.00 0.00 0.00 38 1009.8
20260507052513 52 73 4.0 11.0 0.00 0.00 0.00 40 1009.7
20260507052010 53 66 9.0 15.0 0.00 0.00 0.00 39 1009.7
20260507051541 54 53 10.0 16.0 0.00 0.00 0.00 35 1009.9
20260507051010 54 78 11.0 14.0 0.00 0.00 0.00 31 1009.6
20260507050512 55 82 9.0 14.0 0.00 0.00 0.00 30 1009.6
20260507050041 55 88 10.0 14.0 0.00 0.00 0.00 30 1009.7
20260507045506 55 94 7.0 14.0 0.00 0.00 0.00 30 1009.6
20260507045013 55 123 8.0 14.0 0.00 0.00 0.00 30 1009.9
20260507044537 55 57 8.0 11.0 0.00 0.00 0.00 32 1009.9
20260507044012 55 315 0.0 8.0 0.00 0.00 0.00 32 1009.9
20260507043514 55 315 3.0 8.0 0.00 0.00 0.00 32 1010.1
20260507043038 56 303 2.0 11.0 0.00 0.00 0.00 31 1009.6
20260507042511 56 84 4.0 13.0 0.00 0.00 0.00 29 1009.0
20260507042015 57 101 9.0 13.0 0.00 0.00 0.00 28 1008.6
20260507041538 57 113 5.0 11.0 0.00 0.00 0.00 30 1008.7
20260507041010 56 111 3.0 14.0 0.00 0.00 0.00 30 1008.5
20260507040514 56 133 8.0 14.0 0.00 0.00 0.00 30 1008.5
20260507040045 56 113 7.0 10.0 0.00 0.00 0.00 31 1008.6
20260507035512 56 117 7.0 11.0 0.00 0.00 0.00 32 1008.6
20260507035013 56 89 6.0 16.0 0.00 0.00 0.00 32 1008.7
20260507034554 56 72 9.0 16.0 0.00 0.00 0.00 32 1008.6
20260507034013 56 116 9.0 13.0 0.00 0.00 0.00 35 1008.1
20260507033516 55 77 5.0 10.0 0.00 0.00 0.00 35 1008.0
20260507033045 54 107 6.0 10.0 0.00 0.00 0.00 38 1008.0
20260507032514 53 117 8.0 10.0 0.00 0.00 0.00 40 1008.1
20260507032011 52 43 2.0 3.0 0.00 0.00 0.00 41 1008.6
20260507031539 53 276 1.0 3.0 0.00 0.00 0.00 43 1008.6
20260507031013 54 276 2.0 3.0 0.00 0.00 0.00 39 1008.3
20260507030513 55 136 0.0 5.0 0.00 0.00 0.00 35 1008.2
20260507030039 55 136 3.0 7.0 0.00 0.00 0.00 35 1007.6
20260507025512 55 134 3.0 7.0 0.00 0.00 0.00 35 1007.5
20260507025016 55 131 5.0 7.0 0.00 0.00 0.00 35 1007.4
20260507024550 56 136 5.0 8.0 0.00 0.00 0.00 35 1007.3
20260507024013 56 126 5.0 7.0 0.00 0.00 0.00 35 1007.4
20260507023517 55 119 4.0 6.0 0.00 0.00 0.00 36 1007.6
20260507023041 55 132 3.0 5.0 0.00 0.00 0.00 37 1007.7
20260507022513 56 107 0.0 2.0 0.00 0.00 0.00 38 1007.8
20260507022015 57 107 1.0 3.0 0.00 0.00 0.00 37 1007.6
20260507021547 58 107 2.0 3.0 0.00 0.00 0.00 35 1007.8
20260507021014 58 105 2.0 3.0 0.00 0.00 0.00 35 1007.9
20260507020513 59 105 2.0 3.0 0.00 0.00 0.00 34 1007.9
20260507020053 59 105 2.0 3.0 0.00 0.00 0.00 35 1007.9
20260507015514 60 105 2.0 4.0 0.00 0.00 0.00 35 1008.0
20260507015012 61 105 3.0 4.0 0.00 0.00 0.00 32 1008.0
20260507014546 62 92 2.0 6.0 0.00 0.00 0.00 34 1007.8
20260507014014 63 92 3.0 6.0 0.00 0.00 0.00 31 1008.0
20260507013513 64 94 4.0 7.0 0.00 0.00 0.00 28 1007.8
20260507013041 65 86 3.0 7.0 0.00 0.00 0.00 29 1007.9
20260507012512 65 87 3.0 7.0 0.00 0.00 0.00 27 1007.7
20260507012014 66 78 3.0 6.0 0.00 0.00 0.00 26 1007.7
20260507011545 66 90 3.0 9.0 0.00 0.00 0.00 27 1007.9
20260507011011 67 82 5.0 9.0 0.00 0.00 0.00 24 1007.9
20260507010513 67 80 4.0 10.0 0.00 0.00 0.00 22 1007.9
20260507010050 68 82 5.0 10.0 0.00 0.00 0.00 22 1008.0
20260507005515 68 84 7.0 10.0 0.00 0.00 0.00 24 1008.0
20260507005015 69 49 5.0 10.0 0.00 0.00 0.00 23 1007.9
20260507004538 69 90 3.0 6.0 0.00 0.00 0.00 23 1008.1
20260507004014 69 51 4.0 6.0 0.00 0.00 0.00 24 1007.9
20260507003513 69 12 2.0 9.0 0.00 0.00 0.00 22 1008.0
20260507003040 69 24 2.0 9.0 0.00 0.00 0.00 22 1008.1
20260507002509 68 56 0.0 9.0 0.00 0.00 0.00 21 1008.3
20260507002014 68 27 6.0 9.0 0.00 0.00 0.00 23 1008.2
20260507001546 68 26 4.0 10.0 0.00 0.00 0.00 23 1008.2
20260507001013 68 348 6.0 11.0 0.00 0.00 0.00 22 1008.2
20260507000515 68 352 5.0 12.0 0.00 0.00 0.00 23 1008.3
20260507000037 68 22 5.0 12.0 0.00 0.00 0.00 22 1008.3
20260506235515 69 351 7.0 11.0 0.00 0.00 0.00 22 1008.3
20260506235014 68 15 8.0 12.0 0.00 0.00 0.00 23 1008.3
20260506234529 68 11 8.0 12.0 0.00 0.00 0.00 23 1008.3
20260506234014 68 350 5.0 15.0 0.00 0.00 0.00 22 1008.3
20260506233514 68 341 11.0 15.0 0.00 0.00 0.00 22 1008.4
20260506233050 69 16 10.0 15.0 0.00 0.00 0.00 23 1008.5
20260506232510 69 14 3.0 10.0 0.00 0.00 0.00 20 1008.6
20260506232010 69 320 3.0 12.0 0.00 0.00 0.00 22 1008.5
20260506231542 69 333 4.0 12.0 0.00 0.00 0.00 20 1008.8
20260506231014 69 30 6.0 16.0 0.00 0.00 0.00 23 1008.8
20260506230513 69 24 7.0 17.0 0.00 0.00 0.00 21 1008.8
20260506230051 68 337 9.0 17.0 0.00 0.00 0.00 22 1008.9
20260506225514 69 338 8.0 15.0 0.00 0.00 0.00 20 1009.0
20260506225013 69 9 8.0 15.0 0.00 0.00 0.00 20 1009.1
20260506224537 69 329 7.0 15.0 0.00 0.00 0.00 21 1009.2
20260506224014 69 316 9.0 16.0 0.00 0.00 0.00 23 1009.2
20260506223515 69 316 7.0 15.0 0.00 0.00 0.00 22 1009.4
20260506223044 68 346 7.0 14.0 0.00 0.00 0.00 21 1009.4
20260506222513 68 331 7.0 16.0 0.00 0.00 0.00 20 1009.4
20260506222015 68 340 9.0 19.0 0.00 0.00 0.00 21 1009.5
20260506221547 68 329 12.0 19.0 0.00 0.00 0.00 21 1009.6
20260506221006 67 234 3.0 14.0 0.00 0.00 0.00 22 1009.7
20260506220513 67 284 8.0 14.0 0.00 0.00 0.00 20 1009.8
20260506220049 67 270 4.0 11.0 0.00 0.00 0.00 20 1009.9
20260506215515 67 266 7.0 12.0 0.00 0.00 0.00 22 1009.9
20260506215015 67 313 7.0 15.0 0.00 0.00 0.00 22 1010.1
20260506214550 67 309 7.0 15.0 0.00 0.00 0.00 20 1010.1
20260506214012 67 321 8.0 15.0 0.00 0.00 0.00 21 1010.2
20260506213516 66 306 6.0 20.0 0.00 0.00 0.00 22 1010.3
20260506213037 66 311 12.0 20.0 0.00 0.00 0.00 22 1010.2
20260506212513 65 306 3.0 13.0 0.00 0.00 0.00 22 1010.4
20260506212014 65 186 7.0 13.0 0.00 0.00 0.00 20 1010.4
20260506211601 65 217 6.0 10.0 0.00 0.00 0.00 20 1010.6
20260506211017 64 220 5.0 12.0 0.00 0.00 0.00 20 1010.7
20260506210514 65 221 8.0 14.0 0.00 0.00 0.00 20 1010.9
20260506210044 65 247 7.0 13.0 0.00 0.00 0.00 21 1010.9
20260506205517 64 157 3.0 16.0 0.00 0.00 0.00 19 1010.9
20260506205014 64 249 8.0 14.0 0.00 0.00 0.00 20 1011.0
20260506204528 64 288 7.0 12.0 0.00 0.00 0.00 21 1011.2
20260506204015 63 223 6.0 12.0 0.00 0.00 0.00 22 1011.4
20260506203514 62 241 4.0 12.0 0.00 0.00 0.00 21 1011.4